Location: Meanaryar
(48.4161°N, 4.7315°W)
Time: 01:10:25
(UTC+00:00)

Terra - Pass Details

Date: 18 September 2020
Orbit: 701 x 703 km, 98.2° (Epoch: 31 October)

Event Time Altitude Azimuth Distance (km) Brightness Sun altitude
Exits shadow 20:18:54 11° 51° (NE) 2,137 4.1 -19.2°
Drops below altitude 10° 20:19:45 10° 40° (NE) 2,182 4.2 -19.3°
Sets 20:24:00 0° 4° (N) 3,106 5.5 -19.9°
